Location: Hylvaty SDH
(49.9612°N, 16.4057°E)
Time: 12:45:35
(UTC+01:00)

A-11 Canister half - Pass Details

Date: 08 October 2020
Orbit: 1526 x 1683 km, 47.3° (Epoch: 28 October)

Event Time Altitude Azimuth Distance (km) Brightness Sun altitude
Rises 19:22:21 0° 198° (SSW) 4,685 11.7 -11.3°
Reaches altitude 10° 19:26:00 10° 187° (S) 3,694 11.0 -11.9°
Maximum altitude 19:33:15 27° 135° (SE) 2,623 9.8 -13.1°
Enters shadow 19:38:03 17° 95° (E) 3,146 10.0 -13.8°
Drops below altitude 10° 19:40:30 10° 83° (E) 3,704 - -14.2°
Sets 19:44:09 0° 72° (ENE) 4,701 - -14.8°
